Flag for China Weather past 2 weeks in Chengdu, Sichuan, China

Now
61 °F

Fog.


Feels Like: 61 °F
Forecast: 60 / 75 °F
Wind: 3 mph from Southwest

Location: Chengdu Airport

Current Time: Mar 28, 2015 at 3:54:40 AM

Latest Report: Mar 28, 2015 at 3:00 AM


Visibility: 2 mi

Pressure: 30.09 "Hg

Humidity: 83%

Dew point: 55 °F

Location of ChengduLocation

Historic Weather in Chengdu — Graph

°F

Chengdu temperature yesterday

Maximum temperature yesterday: 70 °F (at 12:00 PM)
Minimum temperature yesterday: 61 °F (at 11:00 PM)
Average temperature yesterday: 66 °F

Past Weeks' High & Low Weather Summary

 TemperatureHumidityPressure
High79 °F (Mar 17, 3:00 PM)94% (Mar 21, 6:00 AM)30.33 "Hg (Mar 21, 6:00 AM)
Low45 °F (Mar 13, 8:00 AM)25% (Mar 21, 6:00 PM)29.59 "Hg (Mar 17, 5:00 PM)
Average64 °F61%30.03 "Hg
* Reported Mar 13 2:00 AM — Mar 28 2:00 AM, Chengdu, Weather by CustomWeather, © 2015

Note: Actual official high and low records may vary slightly from our data, if they occured in-between our weather recording intervals... More about our weather records

Advertising

Chengdu weather history for previous 24 hours

 ConditionsComfort  
Time TempWeatherWind HumidityBarometerVisibility
2:00 AM
Sat, Mar 28
61 °FFog.1 mph88%30.12 "Hg2 mi
1:00 AM59 °FFog.1 mph88%30.15 "Hg2 mi
12:00 AM61 °FFog.No wind83%30.15 "Hg3 mi
11:00 PM
Fri, Mar 27
61 °FFog.No wind77%30.15 "Hg3 mi
10:00 PM63 °FFog.3 mph77%30.15 "Hg3 mi
9:00 PM63 °FFog.1 mph77%30.15 "Hg3 mi
8:00 PM63 °FFog.3 mph77%30.12 "Hg3 mi
7:00 PM64 °FFog.3 mph78%30.09 "Hg2 mi
6:00 PM64 °FFog.6 mph73%30.07 "Hg2 mi
5:00 PM66 °FHaze.6 mph68%30.07 "Hg2 mi
4:00 PM68 °FHaze.1 mph64%30.07 "Hg2 mi
3:00 PM70 °FHaze.3 mph57%30.07 "Hg2 mi
2:00 PM70 °FHaze.6 mph57%30.09 "Hg2 mi
1:00 PM70 °FScattered clouds.3 mph57%30.12 "Hg2 mi
12:00 PM70 °FScattered clouds.3 mph57%30.15 "Hg2 mi
11:00 AM68 °FLight rain. Scattered clouds.6 mph60%30.15 "Hg3 mi
10:00 AM66 °FScattered clouds.3 mph64%30.15 "Hg3 mi
9:00 AM66 °FHaze.6 mph64%30.15 "Hg3 mi
8:00 AM66 °FScattered clouds.3 mph60%30.12 "Hg3 mi
7:00 AM66 °FScattered clouds.8 mph60%30.12 "Hg3 mi
6:00 AM64 °FFog.1 mph68%30.12 "Hg3 mi
5:00 AM64 °FPassing clouds.1 mph68%30.09 "Hg3 mi
4:00 AM63 °FFog.No wind77%30.12 "Hg3 mi
3:00 AM66 °FPassing clouds.1 mph68%30.15 "Hg3 mi
Weather by CustomWeather, © 2015

See weather overviewHow to use our weather pages